Left ArrowRight Arrow

44.8408, -93.29828

Hourly Observations for June 17, 2024

Temp ( °F °C ) Dew Point ( °F °C ) Humidity (%) Winds ( mph kmh ) Pressure ( in mb ) Visibility ( mi km ) Precip ( " mm )
12:53 am 00:53 Partly Cloudy 74 23.3 65 18.3 74 74 N 12 19 29.73 1007 10 16 0.01 0.13
1:53 am 01:53 Partly Cloudy 73 22.8 57 13.9 57 57 N 7 11 29.74 1007 10 16 0.00 0.00
2:53 am 02:53 Mostly Cloudy 73 22.8 55 12.8 53 53 NNE 12 19 29.73 1007 10 16 0.00 0.00
3:53 am 03:53 Cloudy 73 22.8 54 12.2 51 51 NE 6 9 29.74 1007 10 16 0.00 0.00
4:02 am 04:02 Cloudy with Thunderstorms 73 22.8 53 11.7 50 50 NNE 10 17 29.72 1006 10 16 0.00 0.00
4:15 am 04:15 Cloudy 73 22.8 53 11.7 50 50 NE 8 13 29.73 1007 10 16 0.00 0.00
5:02 am 05:02 Cloudy with Nearby Thunderstorms 70 21.1 47 8.3 44 44 N 18 30 29.80 1009 10 16 0.01 0.13
5:15 am 05:15 Cloudy with Thunderstorms 67 19.4 49 9.4 52 52 NW 12 19 29.83 1010 7 11 0.01 0.13
5:46 am 05:46 Cloudy with Thunderstorms 60 15.6 55 12.8 83 83 NNE 9 15 29.82 1010 6 10 0.12 3.05
5:53 am 05:53 Cloudy with Thunderstorms 59 15 55 12.8 87 87 NW 14 22 29.83 1010 7 11 0.12 3.05
6:03 am 06:03 Cloudy with Light Rain 59 15 55 12.8 87 87 NW 15 24 29.86 1011 7 11 0.01 0.13
6:53 am 06:53 Cloudy with Rain 57 13.9 54 12.2 89 89 N 13 20 29.90 1013 4 6 0.21 5.33
7:53 am 07:53 Cloudy with Rain 57 13.9 53 11.7 87 87 N 15 24 29.85 1011 4 6 0.16 4.06
8:53 am 08:53 Cloudy with Light Rain 57 13.9 54 12.2 89 89 E 8 13 29.87 1012 6 10 0.11 2.79
9:53 am 09:53 Cloudy 58 14.4 54 12.2 87 87 E 13 20 29.82 1010 10 16 0.03 0.76
10:53 am 10:53 Cloudy 59 15 54 12.2 83 83 SE 9 15 29.85 1011 10 16 0.00 0.00
11:53 am 11:53 Cloudy with Light Rain 59 15 55 12.8 87 87 NNW 5 7 29.88 1012 10 16 0.01 0.13
12:06 pm 12:06 Cloudy 59 15 55 12.8 87 87 E 5 7 29.86 1011 10 16 0.01 0.13
12:53 pm 12:53 Cloudy 61 16.1 55 12.8 81 81 E 8 13 29.83 1010 10 16 0.01 0.13
1:00 pm 13:00 Cloudy 61 16.1 55 12.8 81 81 ENE 8 13 29.82 1010 10 16 0.00 0.00
1:53 pm 13:53 Cloudy with Light Rain 62 16.7 58 14.4 86 86 E 7 11 29.84 1010 10 16 0.01 0.13
2:53 pm 14:53 Cloudy 62 16.7 58 14.4 86 86 E 10 17 29.82 1010 10 16 0.01 0.13
3:40 pm 15:40 Cloudy with Light Rain 62 16.7 59 15 90 90 ENE 6 9 29.83 1010 10 16 0.01 0.25
3:53 pm 15:53 Cloudy 62 16.7 58 14.4 86 86 E 6 9 29.84 1010 10 16 0.01 0.25
4:53 pm 16:53 Cloudy with Light Rain 62 16.7 60 15.6 93 93 SE 10 17 29.81 1009 10 16 0.01 0.13
5:12 pm 17:12 Cloudy with Rain 63 17.2 60 15.6 90 90 ESE 21 33 29.74 1007 5 8 0.01 0.13
5:23 pm 17:23 Cloudy with Rain 63 17.2 60 15.6 90 90 ESE 29 46 29.66 1004 6 10 0.03 0.76
5:43 pm 17:43 Cloudy 63 17.2 63 17.2 100 100 undefined N/A 29.71 1006 10 16 0.04 1.02
5:53 pm 17:53 Cloudy 64 17.8 62 16.7 93 93 VRB 5 7 29.71 1006 10 16 0.04 1.02
6:16 pm 18:16 Cloudy 66 18.9 62 16.7 87 87 NW 17 28 29.74 1007 10 16 0.00 0.00
6:38 pm 18:38 Cloudy 64 17.8 62 16.7 93 93 N 9 15 29.73 1007 7 11 0.00 0.00
6:53 pm 18:53 Cloudy 64 17.8 62 16.7 93 93 NNW 9 15 29.79 1009 8 13 0.00 0.00
7:13 pm 19:13 Cloudy 64 17.8 61 16.1 90 90 N 9 15 29.80 1009 9 14 0.00 0.00
7:38 pm 19:38 Cloudy 64 17.8 61 16.1 90 90 N 12 19 29.80 1009 10 16 0.00 0.00
8:01 pm 20:01 Cloudy 64 17.8 61 16.1 90 90 NNE 7 11 29.78 1008 10 16 0.00 0.00
8:25 pm 20:25 Cloudy with Light Rain 63 17.2 60 15.6 90 90 NE 12 19 29.76 1008 10 16 0.01 0.13
8:53 pm 20:53 Mostly Cloudy with Light Rain 63 17.2 61 16.1 93 93 ENE 7 11 29.75 1008 10 16 0.01 0.25
9:04 pm 21:04 Partly Cloudy with Nearby Thunderstorms 64 17.8 61 16.1 90 90 VRB 6 9 29.77 1008 10 16 0.01 0.13
9:24 pm 21:24 Cloudy with Light Rain 64 17.8 61 16.1 90 90 NE 9 15 29.77 1008 10 16 0.01 0.13
9:38 pm 21:38 Mostly Cloudy 64 17.8 61 16.1 90 90 NE 8 13 29.77 1008 10 16 0.01 0.13
9:53 pm 21:53 Mostly Cloudy 64 17.8 62 16.7 93 93 ENE 8 13 29.77 1008 10 16 0.01 0.13
10:53 pm 22:53 Mostly Clear 65 18.3 63 17.2 93 93 E 9 15 29.76 1008 10 16 0.00 0.00
11:11 pm 23:11 Partly Cloudy with Nearby Thunderstorms 65 18.3 63 17.2 93 93 N 9 15 29.76 1008 10 16 0.00 0.00
11:21 pm 23:21 Mostly Cloudy with Nearby Thunderstorms 66 18.9 63 17.2 90 90 NE 10 17 29.77 1008 10 16 0.00 0.00
11:42 pm 23:42 Cloudy 66 18.9 63 17.2 90 90 E 14 22 29.74 1007 10 16 0.00 0.00
11:53 pm 23:53 Mostly Cloudy 66 18.9 63 17.2 90 90 E 14 22 29.75 1007 10 16 0.00 0.00

Powered by Vaisala Xweather